Météo par heure à Kyzlas

Ce jour, 4 Août, Mercredi

Heure Température Précipitation Vent Pression Humidité
00:00 +15°C° 0 mm 1 m/s 706 mmHg 89%
01:00 +15°C° 0 mm 1 m/s 705 mmHg 89%
02:00 +15°C° 0 mm 1 m/s 705 mmHg 89%
03:00 +14°C° 0 mm 1 m/s 705 mmHg 89%
04:00 +15°C° 0 mm 1 m/s 705 mmHg 86%
05:00 +15°C° 0 mm 0 m/s 705 mmHg 84%
06:00 +16°C° 0 mm 0 m/s 705 mmHg 82%
07:00 +18°C° 0 mm 0 m/s 705 mmHg 74%
08:00 +20°C° 0 mm 0 m/s 705 mmHg 67%
09:00 +24°C° 0 mm 1 m/s 705 mmHg 60%
10:00 +24°C° 0 mm 1 m/s 705 mmHg 57%
11:00 +25°C° 0 mm 1 m/s 705 mmHg 55%
12:00 +26°C° 0 mm 1 m/s 705 mmHg 50%
13:00 +27°C° 0 mm 2 m/s 705 mmHg 47%
14:00 +27°C° 0 mm 3 m/s 704 mmHg 45%
15:00 +27°C° 0 mm 3 m/s 704 mmHg 43%
16:00 +26°C° 0 mm 3 m/s 704 mmHg 52%
17:00 +24°C° 0 mm 3 m/s 704 mmHg 61%
18:00 +23°C° 0 mm 2 m/s 704 mmHg 67%
19:00 +20°C° 0.1 mm 2 m/s 704 mmHg 75%
20:00 +18°C° 0.1 mm 2 m/s 705 mmHg 83%
21:00 +16°C° 0.1 mm 1 m/s 705 mmHg 91%
22:00 +16°C° 0.4 mm 1 m/s 705 mmHg 92%
23:00 +16°C° 0.4 mm 1 m/s 705 mmHg 93%

Demain, 5 Août, Jeudi

Heure Température Précipitation Vent Pression Humidité
00:00 +16°C° 0.4 mm 1 m/s 704 mmHg 94%
01:00 +16°C° 0 mm 1 m/s 704 mmHg 94%
02:00 +15°C° 0 mm 1 m/s 704 mmHg 94%
03:00 +15°C° 0 mm 1 m/s 704 mmHg 93%
04:00 +15°C° 0 mm 1 m/s 704 mmHg 92%
05:00 +16°C° 0 mm 1 m/s 704 mmHg 91%
06:00 +16°C° 0 mm 1 m/s 704 mmHg 90%
07:00 +19°C° 0 mm 1 m/s 704 mmHg 82%
08:00 +20°C° 0 mm 1 m/s 704 mmHg 73%
09:00 +22°C° 0 mm 1 m/s 704 mmHg 65%
10:00 +23°C° 0 mm 1 m/s 704 mmHg 59%
11:00 +24°C° 0 mm 1 m/s 704 mmHg 53%
12:00 +25°C° 0 mm 1 m/s 704 mmHg 47%
13:00 +25°C° 0 mm 1 m/s 704 mmHg 48%
14:00 +25°C° 0 mm 1 m/s 703 mmHg 48%
15:00 +25°C° 0 mm 1 m/s 703 mmHg 49%
16:00 +25°C° 0 mm 1 m/s 703 mmHg 52%
17:00 +24°C° 0 mm 1 m/s 703 mmHg 56%
18:00 +24°C° 0 mm 1 m/s 703 mmHg 60%
19:00 +22°C° 0 mm 1 m/s 703 mmHg 64%
20:00 +20°C° 0 mm 1 m/s 702 mmHg 67%
21:00 +18°C° 0 mm 2 m/s 702 mmHg 70%
22:00 +17°C° 0.2 mm 2 m/s 702 mmHg 73%
23:00 +17°C° 0.2 mm 2 m/s 702 mmHg 75%

Après-demain, 6 Août, Vendredi

Heure Température Précipitation Vent Pression Humidité
00:00 +17°C° 0.2 mm 2 m/s 702 mmHg 78%
01:00 +16°C° 0.3 mm 1 m/s 703 mmHg 82%
02:00 +15°C° 0.3 mm 1 m/s 703 mmHg 87%
03:00 +15°C° 0.3 mm 1 m/s 703 mmHg 92%
04:00 +15°C° 0.3 mm 1 m/s 703 mmHg 93%
05:00 +15°C° 0.3 mm 1 m/s 703 mmHg 94%
06:00 +15°C° 0.3 mm 1 m/s 703 mmHg 95%
07:00 +15°C° 0.8 mm 1 m/s 704 mmHg 95%
08:00 +15°C° 0.8 mm 1 m/s 704 mmHg 94%
09:00 +16°C° 0.8 mm 1 m/s 704 mmHg 94%
10:00 +16°C° 0.8 mm 1 m/s 704 mmHg 94%
11:00 +16°C° 0.8 mm 1 m/s 704 mmHg 93%
12:00 +16°C° 0.8 mm 1 m/s 705 mmHg 93%
13:00 +18°C° 0.3 mm 1 m/s 705 mmHg 89%
14:00 +19°C° 0.3 mm 1 m/s 705 mmHg 84%
15:00 +20°C° 0.3 mm 1 m/s 705 mmHg 79%
16:00 +20°C° 0.6 mm 1 m/s 705 mmHg 81%
17:00 +19°C° 0.6 mm 1 m/s 705 mmHg 83%
18:00 +19°C° 0.6 mm 1 m/s 705 mmHg 86%
19:00 +18°C° 0.3 mm 1 m/s 705 mmHg 87%
20:00 +18°C° 0.3 mm 1 m/s 705 mmHg 88%
21:00 +16°C° 0.3 mm 1 m/s 705 mmHg 89%
22:00 +16°C° 0.4 mm 1 m/s 705 mmHg 91%
23:00 +15°C° 0.4 mm 1 m/s 705 mmHg 93%

7 Août, Samedi

Heure Température Précipitation Vent Pression Humidité
00:00 +15°C° 0.4 mm 1 m/s 705 mmHg 95%
01:00 +15°C° 0.7 mm 1 m/s 706 mmHg 96%
02:00 +15°C° 0.7 mm 1 m/s 706 mmHg 96%
03:00 +15°C° 0.7 mm 1 m/s 706 mmHg 97%
04:00 +15°C° 0.2 mm 1 m/s 706 mmHg 97%
05:00 +15°C° 0.2 mm 1 m/s 706 mmHg 96%
06:00 +15°C° 0.2 mm 1 m/s 706 mmHg 96%
07:00 +15°C° 0.1 mm 1 m/s 706 mmHg 95%
08:00 +16°C° 0.1 mm 1 m/s 706 mmHg 95%
09:00 +16°C° 0.1 mm 1 m/s 707 mmHg 94%
10:00 +18°C° 0.5 mm 1 m/s 707 mmHg 89%
11:00 +20°C° 0.5 mm 1 m/s 707 mmHg 83%
12:00 +20°C° 0.5 mm 2 m/s 707 mmHg 78%
13:00 +20°C° 0.6 mm 2 m/s 707 mmHg 76%
14:00 +21°C° 0.6 mm 2 m/s 707 mmHg 74%
15:00 +23°C° 0.6 mm 2 m/s 707 mmHg 72%
16:00 +22°C° 1 mm 1 m/s 707 mmHg 76%
17:00 +21°C° 1 mm 1 m/s 707 mmHg 80%
18:00 +21°C° 1 mm 1 m/s 707 mmHg 84%
19:00 +19°C° 0.2 mm 1 m/s 707 mmHg 86%
20:00 +18°C° 0.2 mm 1 m/s 707 mmHg 87%
21:00 +16°C° 0.2 mm 1 m/s 707 mmHg 89%
22:00 +15°C° 0 mm 1 m/s 707 mmHg 90%
23:00 +15°C° 0 mm 1 m/s 707 mmHg 91%

8 Août, Dimanche

Heure Température Précipitation Vent Pression Humidité
00:00 +14°C° 0 mm 1 m/s 707 mmHg 91%
01:00 +14°C° 0 mm 1 m/s 707 mmHg 92%
02:00 +14°C° 0 mm 1 m/s 707 mmHg 92%
03:00 +13°C° 0 mm 1 m/s 707 mmHg 92%
04:00 +14°C° 0 mm 1 m/s 707 mmHg 91%
05:00 +14°C° 0 mm 1 m/s 707 mmHg 91%
06:00 +15°C° 0 mm 1 m/s 707 mmHg 90%
07:00 +18°C° 0 mm 1 m/s 707 mmHg 83%
08:00 +20°C° 0 mm 1 m/s 708 mmHg 77%
09:00 +21°C° 0 mm 1 m/s 708 mmHg 70%
10:00 +22°C° 0 mm 1 m/s 708 mmHg 66%
11:00 +23°C° 0 mm 2 m/s 707 mmHg 61%
12:00 +24°C° 0 mm 2 m/s 707 mmHg 57%
13:00 +25°C° 0 mm 2 m/s 707 mmHg 56%
14:00 +25°C° 0 mm 3 m/s 707 mmHg 56%
15:00 +25°C° 0 mm 3 m/s 707 mmHg 55%
16:00 +25°C° 0 mm 2 m/s 707 mmHg 61%
17:00 +24°C° 0 mm 2 m/s 707 mmHg 67%
18:00 +23°C° 0 mm 2 m/s 707 mmHg 72%
19:00 +21°C° 0.1 mm 1 m/s 707 mmHg 78%
20:00 +20°C° 0.1 mm 1 m/s 707 mmHg 83%
21:00 +18°C° 0.1 mm 1 m/s 707 mmHg 88%
22:00 +16°C° 0 mm 1 m/s 707 mmHg 89%
23:00 +16°C° 0 mm 1 m/s 707 mmHg 90%

9 Août, Lundi

Heure Température Précipitation Vent Pression Humidité
00:00 +15°C° 0 mm 1 m/s 707 mmHg 90%
01:00 +15°C° 0 mm 1 m/s 706 mmHg 91%
02:00 +15°C° 0 mm 1 m/s 706 mmHg 91%
03:00 +14°C° 0 mm 1 m/s 706 mmHg 92%
04:00 +15°C° 0 mm 1 m/s 706 mmHg 91%
05:00 +16°C° 0 mm 1 m/s 706 mmHg 90%
06:00 +15°C° 0 mm 0 m/s 707 mmHg 89%
07:00 +19°C° 0.1 mm 1 m/s 707 mmHg 83%
08:00 +21°C° 0.1 mm 1 m/s 707 mmHg 77%
09:00 +23°C° 0.1 mm 1 m/s 707 mmHg 71%
10:00 +24°C° 0 mm 1 m/s 706 mmHg 63%
11:00 +25°C° 0 mm 1 m/s 706 mmHg 56%
12:00 +27°C° 0 mm 2 m/s 706 mmHg 48%
13:00 +27°C° 0 mm 1 m/s 706 mmHg 49%
14:00 +27°C° 0 mm 1 m/s 706 mmHg 50%
15:00 +27°C° 0 mm 1 m/s 706 mmHg 51%
16:00 +24°C° 0.4 mm 2 m/s 706 mmHg 63%
17:00 +21°C° 0.4 mm 2 m/s 706 mmHg 75%
18:00 +18°C° 0.4 mm 3 m/s 706 mmHg 86%
19:00 +17°C° 0.1 mm 2 m/s 706 mmHg 89%
20:00 +16°C° 0.1 mm 2 m/s 706 mmHg 92%
21:00 +15°C° 0.1 mm 1 m/s 706 mmHg 94%
22:00 +15°C° 0 mm 1 m/s 706 mmHg 94%
23:00 +14°C° 0 mm 1 m/s 706 mmHg 94%
Voir plus

Nous avons besoin de votre consentement

Meteoprog et ses fournisseurs de services peuvent stocker et accéder à des données personnelles telles que des cookies, des identifiants d'appareils ou d'autres technologies similaires sur votre appareil et traiter ces données pour personnaliser le contenu et les publicités, ainsi que pour fournir des fonctionnalités de médias sociaux et analyser le trafic.

  • Stocker et/ou accéder à des informations sur votre appareil

    Des cookies, des identifiants d'appareils ou d'autres informations peuvent être stockés ou accessibles sur votre appareil aux fins indiquées ci-dessus.

  • Annonces et contenus personnalisés, mesure des annonces et des contenus, connaissance de l'audience et développement de produits

    Les annonces et le contenu peuvent être personnalisés en fonction d'un profil. D'autres données peuvent être ajoutées pour mieux personnaliser les annonces et le contenu. Les performances des publicités et du contenu peuvent être mesurées. Il est possible d'obtenir des informations sur le public qui a vu les publicités et le contenu. Ces données peuvent être utilisées pour développer ou améliorer l'expérience de l'utilisateur, les systèmes et les logiciels.

En cliquant sur "J'accepte", vous autorisez l'utilisation de cookies, des identifiants d'appareils, des balises web ou d'autres technologies similaires. Vos paramètres peuvent être modifiés dans le navigateur de votre appareil.

Dans certains cas, des intérêts légitimes peuvent être invoqués plutôt qu'un consentement. Vous pouvez en savoir plus à ce sujet dans notre Politique de confidentialité et de cookies.